Find Starlink 1376

NORAD ID: 45570 Int'l Des: 2020-025 Owner: SPXS Country: US Constellation: starlink operational
LEOCIRCULAR

Live-Position

3D-Globus wird geladen...

Über Starlink 1376

Beschreibung wird geladen...

Nächste Überflüge

Passes for default location (London). Set your location on the main map for personalized predictions.

Höhenverlauf

Loading altitude history...

Zweizeiliger Elementsatz

1 45570U 20025AR 26104.86761361 .00036744 00000-0 11202-2 0 9993
2 45570 53.1580 269.3730 0002054 284.1472 75.9302 15.33628680331043
Epoch: 14. Apr. 2026 • Age: 10 hours

Aktueller Status

Höhe 469.4 km
Geschwindigkeit 7.63 km/s
Subsatellitenpunkt -17.00°S, 150.87°E
Startdatum 22. Apr. 2020
Alter 5.9 years
Typ internet

Technische Details

Klassifizierung Payload
Masse 260.00 kg
Trockenmasse 248.00 kg
Gesamtmasse 260.00 kg
Länge 0.20 m
Durchmesser 2.80 m
Spannweite 9.00 m
Form Box + pan
Hersteller SPXS
Bus-Typ Starlink
Phasenstatus In Orbit
Besitzer/Staat SPXS/US

Most Searched